Regional Weather Roundup
Issued by NWS Charleston, SC

Current Version | Previous Version | Graphics & Text | Print | Product List | Glossary On
Versions: 1 2 3 4 5 6 7 8 9 10 11 12 13 14 15 16 17 18 19 20 21 22 23 24 25 26 27 28 29 30 31 32 33 34 35 36 37 38 39 40 41 42 43 44 45 46 47 48 49 50
000
ASUS42 KCHS 191927
RWRCHS

Regional Weather Roundup
National Weather Service Charleston SC
300 PM EDT THU APR 19 2018

NOTE: "fair" indicates few or no clouds below 12,000 feet with no
significant weather and/or obstructions to visibility.

Not all stations are quality controlled. Use data with caution,
especially dewpoint observations.

SCZ027-030-031-034>040-042>050-192000-
...Southeast South Carolina...

CITY           SKY/WX    TMP DP  RH WIND       PRES   REMARKS
N Charleston   FAIR      85  56  37 W20G36    29.91S
Waterfront Prk   N/A     81  59  47 W9        29.75S
Mount Pleasant FAIR      82  57  42 W16G22    29.90F
Johns Island   FAIR      84  59  42 W13G25    29.91F
Pinopolis        N/A     75  61  60 W22       29.82F
Moncks Corner  MOCLDY    81  52  36 W9G20     29.90S
Summerville    FAIR      81  55  41 W15G24    29.92S
Beaufort MCAS  FAIR      84  60  44 W21G28    29.94S
Beaufort Arpt  FAIR      82  59  44 W17G32    29.93S
Hilton Head Is MOSUNNY   82  59  44 W17G23    29.95F
Walterboro     FAIR      81  55  41 W16G24    29.93S
Allendale      FAIR      81  55  41 CALM      29.93S

...Southern Midlands and Pee Dee...

CITY           SKY/WX    TMP DP  RH WIND       PRES   REMARKS
Georgetown     FAIR      81  52  36 W20G31    29.88F
Kingstree      FAIR      81  45  28 W16G26    29.88S
Orangeburg     FAIR      81  48  31 W17G32    29.92S
Barnwell       FAIR      81  48  32 W14G24    29.94R
Aiken          FAIR      77  34  20 W22G29    29.99S
Manning        FAIR      79  45  29 W10G25    29.90S
Columbia       FAIR      82  39  21 W18G32    29.91R
Sumter         FAIR      82  44  25 W22G32    29.86F
Florence       FAIR      83  50  31 W16G30    29.86S
Myrtle Beach   FAIR      83  58  42 W18G30    29.86F
N Myrtle Beach FAIR      82  53  36 W15G28    29.83S

$$

GAZ063-065-086>088-099>101-113>116-118-119-134>141-150-192000-
...Southeast Georgia...

CITY           SKY/WX    TMP DP  RH WIND       PRES   REMARKS
Savannah Arpt  FAIR      84  59  42 W20G32    29.96F
Hunter AAF     FAIR      85  61  43 W25       29.93
Fort Stewart   FAIR      83  59  42 W20G29    29.95F
Statesboro     PTSUNNY   81  50  34 W16G28    29.97S
Sylvania       FAIR      81  63  54 W13       29.97S
Claxton        FAIR      82  61  49 SW13G24   29.98S

...CSRA, Central and far Southeast Georgia...

CITY           SKY/WX    TMP DP  RH WIND       PRES   REMARKS
Thomson        FAIR      75  35  23 NW14G26   30.05R
Augusta-Bush   FAIR      81  44  27 W20G35    29.96R
Augusta-Daniel FAIR      79  39  23 W17G26    29.99R
Swainsboro     MOCLDY    81  55  41 W14G22    29.98F
Vidalia        FAIR      81  61  50 W8G17     29.99F
Eastman        MOCLDY    82  41  23 NW13G20   30.03F
Hazlehurst     FAIR      82  57  43 W6        30.00S
Alma           FAIR      82  59  45 W13G24    30.00F
Waycross       PTSUNNY   86  54  33 W17G25    30.00S
Jesup          NOT AVBL
Baxley         FAIR      81  57  44 W13G22    29.99F
Brunswick      FAIR      86  57  37 SW13G22   29.98F
Saint Simons   FAIR      84  62  47 SW14      29.98F

$$

SCZ027-028-034-036>038-045-046-048>050-GAZ119-141-192000-
...Lake and Supplemental Coastal Observations...

STATION/POSITION TIME  TEMP    WIND        PRES    WAVE   SWELL
                       AIR SEA DIR/SP/G            HT/PER HT/PER/DIR
                 (UTC) (F)     (DEG/KT/KT) (MB)    (FT/S) (FT/S/D)
Winyah Bay       1830   81     260/ 14     1012.0S
Lake Murray      1820   74     260/ 14/ 23 1012.2R
ACE Basin NERRS  1845   82     350/  8       N/A
Fort Pulaski     1900   79 66  280/ 18/ 22 1014.4
Sapelo Island    1900   82     270/ 16     1015.0

$$

ANZ835-935-AMZ111-154-330-350-352-354-370-450-454-472-192000-
...C-MAN and Buoy Observations...

STATION/POSITION TIME  TEMP    WIND        PRES    WAVE   SWELL
                       AIR SEA DIR/SP/G            HT/PER HT/PER/DIR
                 (UTC) (F)     (DEG/KT/KT) (MB)    (FT/S) (FT/S/D)
Buoy 41004       1910   68 67  220/ 21/ 27 1013.5
Buoy 41008       1850   67 66  180/ 16/ 17 1014.9F   3/ 5
Folly Beach CMAN 1900   69     220/ 18/ 21 1013.8F
Capers Nearshore 1908   67 63  240/ 17/ 25 1012.9F
Fripp Nearshore  1908   66 64  220/ 14/ 21 1013.7F


STATION/POSITION TIME  TEMP    WIND        PRES    WAVE   SWELL
                       AIR SEA DIR/SP/G            HT/PER HT/PER/DIR
                 (UTC) (F)     (DEG/KT/KT) (MB)    (FT/S) (FT/S/D)
5E St. Marys GA  1830      67                N/A     2/ 5
Frying Pan Buoy  1910   67 66  210/ 21/ 27 1011.8
Buoy 41025       1910   69 68  230/ 23/ 29 1008.6
Cape Lookout NC  1900          220/ 16/ 22 1009.0S
Buoy 41002       1910   73 72  220/ 19/ 23 1015.6
Buoy 41010       1910   75 74  230/ 12/ 14 1018.7
St Augustine FL  1900   81 68  250/ 16/ 22 1017.7F


$$




USA.gov is the U.S. government's official web portal to all federal, state and local government web resources and services.